Wind_Speed
26 27 29 29 29 26 23 22 14 8 6 6 12 16 15 15 16 19 17 16 18 21 23 24 28 34 34 33 34 37 35 30 28 24 22 22 21 20 20 21 21 19 16 15 14 14 14 17 17 16 16 15 15 14 13 12 10 9 8 8 9 10 9 8 7 8 8 8 9 10 10 10 9 9 9 9 9 10 11 12 13 13 12 11 11 12
27 29 34 31 28 25 21 21 17 8 4 4 10 18 19 17 17 18 17 15 16 18 21 23 27 32 35 35 36 37 36 32 30 26 22 22 20 17 19 20 19 16 15 13 12 12 12 13 15 16 17 16 15 14 13 12 11 9 8 7 8 9 9 9 8 8 9 9 10 10 9 9 9 10 10 10 10 11 12 13 14 14 14 14 13 13
28 31 35 31 27 25 20 20 19 11 5 2 8 18 22 20 17 17 16 14 16 17 20 22 23 30 36 37 37 39 37 33 31 27 21 19 18 16 16 17 18 17 16 15 13 13 12 11 13 16 18 17 15 15 14 13 12 11 10 8 9 9 9 9 9 9 9 9 9 10 9 9 9 10 10 10 11 11 12 14 15 15 15 15 15 14
28 28 28 28 28 25 20 21 20 13 8 5 8 15 20 20 17 16 15 15 17 17 19 21 19 26 37 38 36 38 37 35 33 28 22 18 15 13 13 13 15 17 18 18 15 14 13 12 12 14 17 18 17 16 15 14 13 12 11 9 9 11 11 10 10 10 9 8 9 9 9 9 9 9 10 10 10 11 12 14 15 15 15 16 16 15
27 20 18 22 25 25 23 23 21 16 13 10 11 14 17 18 17 14 14 17 19 15 17 22 18 22 35 37 34 35 35 35 35 31 27 23 18 14 13 12 12 16 18 18 17 16 14 13 11 11 14 18 18 16 14 13 12 12 11 10 10 11 12 12 12 11 9 7 7 7 7 7 7 7 8 9 9 10 11 12 14 15 15 16 16 16
23 16 16 18 19 23 25 25 24 19 16 13 14 15 15 16 16 14 14 19 21 15 16 23 17 14 30 36 34 35 33 32 35 33 30 28 25 21 19 16 13 15 18 17 17 17 15 14 11 10 13 18 18 16 15 13 12 12 12 11 10 11 12 13 13 11 9 7 6 6 6 4 4 5 7 8 9 10 11 11 13 14 14 14 15 15
19 16 18 18 16 20 24 27 27 22 18 15 14 12 12 17 18 15 16 21 21 14 15 23 16 9 22 34 35 36 33 31 34 35 33 31 29 27 23 18 16 17 18 18 17 17 16 14 12 11 12 15 17 17 16 15 14 13 13 12 10 10 12 13 13 12 9 8 8 8 7 6 6 6 7 8 9 10 11 11 11 12 12 13 14 14
19 18 17 16 16 17 22 28 30 25 21 16 12 9 11 18 20 16 17 20 17 12 15 22 18 7 15 30 35 36 33 31 35 36 35 34 31 29 26 21 18 17 18 18 17 16 15 13 11 10 10 11 14 16 16 16 15 14 13 12 11 10 11 12 13 13 12 10 10 10 10 9 8 9 8 8 8 8 9 10 10 11 11 11 12 13
18 17 14 13 14 16 23 30 30 27 22 15 10 8 10 17 21 18 20 20 14 12 16 22 20 8 9 25 34 37 36 34 36 38 36 35 34 32 28 24 21 19 19 18 16 14 13 12 10 9 8 8 10 14 16 16 16 15 14 13 12 11 11 12 12 13 13 13 12 12 11 10 9 9 9 8 8 8 9 10 10 10 10 11 11 12
17 17 14 13 15 16 22 27 27 27 23 15 10 12 13 16 20 21 20 19 14 11 15 26 25 9 5 21 35 39 40 39 38 39 37 34 35 34 29 25 24 23 22 20 17 14 11 10 10 9 7 6 8 11 14 17 17 16 16 14 13 12 11 12 12 13 13 13 12 11 11 10 9 8 8 8 8 8 9 9 10 10 10 10 11 11
17 17 16 17 17 15 16 19 24 26 23 17 13 15 18 20 26 25 18 15 12 6 13 27 28 12 3 17 35 42 44 43 40 39 39 36 35 35 30 27 27 27 26 23 20 16 13 12 11 9 9 7 7 10 13 16 18 17 16 15 14 13 12 12 13 14 14 14 12 11 10 10 9 8 8 8 7 8 8 8 8 9 9 10 10 10
19 18 17 17 16 15 13 15 22 23 22 18 15 17 19 19 22 19 8 6 5 2 10 22 26 15 6 13 28 39 44 44 42 40 40 37 36 36 34 33 33 30 29 27 23 19 16 15 14 11 10 9 9 10 12 15 17 18 16 16 15 14 14 13 13 14 15 14 13 11 10 10 10 9 8 7 7 7 7 7 7 7 8 8 9 10
20 20 18 17 17 17 13 15 20 21 22 20 19 24 20 10 8 6 3 3 4 2 6 18 24 15 11 14 19 31 39 42 43 42 40 37 36 38 38 39 35 29 29 29 26 22 20 18 15 12 10 11 11 10 11 13 15 17 17 16 16 15 14 14 13 14 14 14 13 11 10 10 11 10 9 8 7 7 7 7 6 6 6 7 8 9
14 16 18 18 17 17 16 17 20 21 22 23 25 32 23 8 4 2 2 3 5 3 3 15 22 10 9 12 13 22 31 36 40 41 38 36 38 41 40 37 33 29 30 30 27 23 21 19 16 13 11 11 13 11 10 11 13 16 17 17 16 15 15 14 14 13 13 13 13 13 11 10 10 10 10 9 8 8 7 6 6 6 6 6 7 8
6 9 16 19 15 17 19 17 17 19 22 23 25 28 25 18 10 5 6 5 2 2 5 15 17 6 6 8 10 17 22 26 33 37 37 37 38 40 39 36 33 31 31 32 30 25 22 20 18 16 13 11 13 12 10 11 13 15 16 17 17 16 16 15 14 14 13 12 13 13 13 11 10 11 11 11 10 8 8 7 7 6 6 7 7 7
7 8 12 18 14 14 18 16 14 18 23 26 26 26 27 24 17 13 14 13 10 8 8 14 12 7 8 8 9 18 20 21 28 32 35 36 36 37 38 36 32 32 33 33 31 28 24 22 22 20 16 13 13 13 11 11 13 16 16 16 17 16 16 15 15 14 13 13 12 13 13 13 12 12 11 11 10 9 8 8 8 7 7 7 7 6
8 8 11 16 15 13 17 17 14 17 23 27 30 30 27 23 18 15 12 11 11 7 4 8 6 5 7 7 13 21 20 21 25 28 30 32 34 36 37 35 33 33 34 32 31 30 27 25 24 23 20 16 16 15 14 12 13 16 16 16 16 16 16 16 15 15 14 14 14 13 13 13 13 13 12 11 10 9 9 9 10 9 8 7 6 6
6 9 12 16 16 15 18 18 15 15 19 24 29 29 23 19 18 13 6 6 6 3 1 4 4 7 7 6 16 22 21 22 22 24 27 30 34 35 35 35 34 34 36 34 31 30 31 29 26 24 21 19 18 17 16 14 13 16 18 17 16 16 15 15 14 15 15 15 15 14 13 13 13 14 14 13 12 11 11 11 11 10 9 8 7 7
5 7 12 16 15 16 19 19 16 13 12 17 25 26 18 12 13 13 8 5 4 2 1 2 3 9 10 9 18 24 22 21 19 20 24 28 32 33 34 33 33 35 37 36 31 29 32 32 27 26 24 21 20 19 18 17 15 17 19 18 16 16 15 15 14 14 15 15 15 15 15 14 14 15 16 16 15 14 13 12 12 11 10 10 9 9
4 5 10 13 14 16 17 18 16 15 12 12 15 18 16 10 10 14 11 9 10 5 1 1 3 6 11 10 17 25 25 22 22 22 24 27 30 32 34 35 35 36 38 37 32 29 32 32 29 28 27 24 22 21 20 19 17 18 21 21 18 17 17 17 17 16 15 15 15 15 16 15 15 16 17 18 18 16 15 13 13 13 12 12 11 10
4 5 7 9 12 14 16 17 17 14 13 14 13 11 12 12 11 11 7 7 12 7 4 3 1 7 14 12 16 25 26 23 24 25 25 26 30 31 32 33 35 37 40 39 35 33 33 30 29 30 29 26 25 23 22 21 19 19 21 22 20 18 18 18 18 18 17 16 16 16 16 16 17 17 18 19 19 18 17 16 15 14 14 13 12 12
3 4 6 9 13 12 12 15 16 11 10 13 13 8 7 11 12 10 4 4 10 10 10 10 3 8 16 15 17 24 25 24 24 24 24 24 26 28 29 29 31 34 38 40 39 36 34 29 28 30 31 29 28 27 25 24 23 23 23 23 21 19 17 17 18 18 18 18 18 17 17 17 18 18 19 19 20 20 19 18 17 16 15 15 14 13
0 3 4 8 12 10 9 12 14 11 9 9 11 8 6 9 13 12 6 7 10 10 13 13 5 7 16 17 19 23 24 24 24 22 22 21 20 21 24 26 27 30 34 37 38 38 36 34 33 34 34 32 31 29 28 26 25 24 23 23 23 22 19 19 19 20 20 20 20 19 19 19 19 19 19 20 20 21 21 20 19 18 17 16 15 15
0 1 2 6 10 8 7 9 10 11 11 8 9 8 5 7 12 13 10 11 13 12 13 10 3 7 17 19 21 24 24 25 23 20 18 15 13 14 17 21 23 26 30 30 31 34 36 38 39 38 37 35 32 30 28 27 25 25 24 23 23 23 23 23 22 22 22 22 21 20 20 20 21 21 21 20 20 20 21 21 20 20 19 18 17 17
3 2 1 4 6 6 5 5 6 9 10 8 8 8 5 5 10 13 12 12 13 15 17 12 5 10 20 22 24 26 26 25 23 20 18 13 11 12 14 16 16 17 20 23 25 28 31 34 35 36 36 34 32 30 28 27 28 28 26 24 23 25 25 25 24 24 24 23 22 21 21 21 21 21 21 21 20 20 20 21 22 22 21 20 19 19
6 6 3 3 5 5 3 2 3 6 9 9 10 11 7 6 9 11 14 15 13 15 20 16 12 18 24 25 28 29 27 26 23 21 20 16 14 14 14 14 12 12 13 17 21 25 28 29 30 29 30 30 29 27 27 29 32 30 26 23 24 25 25 24 25 25 25 23 23 23 23 23 23 23 22 22 22 21 21 22 23 23 23 23 22 21
8 10 10 11 12 11 9 6 4 7 10 12 13 11 9 8 7 8 12 16 16 17 19 18 18 24 29 30 31 31 29 26 23 22 20 17 15 14 12 12 13 14 13 14 17 21 25 26 26 26 26 25 24 24 26 30 32 28 23 23 23 22 21 22 24 25 24 23 24 23 23 24 24 25 25 24 24 23 23 24 23 24 24 24 24 24
8 10 11 12 13 13 13 11 8 10 12 13 14 12 10 10 9 9 10 11 14 16 16 19 22 25 31 34 34 32 30 26 23 22 19 16 14 12 11 12 14 15 16 16 16 17 20 21 21 22 22 21 21 22 25 27 27 24 22 23 22 20 20 21 24 25 26 27 26 24 24 25 25 26 27 27 26 26 25 25 25 24 24 25 25 25
10 7 8 9 9 9 11 12 12 13 14 13 13 14 14 11 9 9 9 8 12 14 14 20 25 24 28 35 35 31 28 25 21 19 16 14 13 12 11 11 12 14 17 20 20 17 17 18 17 17 17 18 20 21 21 22 22 21 22 22 22 23 23 23 24 25 27 30 30 28 26 25 24 25 27 28 28 28 28 27 26 25 25 25 26 25
11 8 8 10 8 7 8 11 13 15 14 14 14 14 14 11 8 8 9 12 14 12 11 18 27 26 27 33 34 29 25 23 20 17 15 14 13 12 10 9 10 11 15 19 21 20 17 16 16 16 15 14 17 19 19 19 19 20 20 21 22 24 24 23 24 26 27 30 32 31 28 25 24 25 26 27 28 29 30 30 29 27 26 27 27 27
10 10 7 9 9 8 7 8 11 13 13 14 14 14 13 10 9 9 12 16 16 10 9 19 29 30 29 32 32 28 25 24 21 19 16 12 9 8 8 8 9 12 15 18 19 19 18 16 16 16 14 14 15 16 17 18 18 18 18 19 21 22 22 22 23 25 26 27 30 30 26 23 24 25 25 26 28 30 31 32 32 30 29 29 29 29
5 11 11 2 5 7 7 7 8 8 11 14 15 13 12 12 13 13 14 16 15 13 18 25 30 31 32 32 31 28 26 23 23 22 16 9 4 4 4 6 9 14 17 18 18 17 17 16 17 16 15 15 15 14 15 16 16 15 15 16 16 16 18 20 20 22 23 24 25 25 23 22 23 25 25 26 28 30 31 32 34 35 34 32 30 30
2 10 16 9 2 3 6 7 8 6 6 9 10 11 10 12 15 14 13 13 10 10 17 23 26 29 32 34 33 30 27 25 23 18 9 4 4 5 5 6 9 14 17 20 20 19 17 18 18 17 16 16 16 15 14 14 14 13 12 14 13 12 14 15 15 16 19 21 21 20 20 21 22 24 24 25 28 30 31 32 36 39 38 34 30 29
2 8 16 13 5 1 2 6 8 5 2 2 4 6 6 8 11 12 12 12 9 7 10 16 22 28 33 34 33 31 27 23 19 12 5 3 3 3 3 5 8 12 17 22 24 22 20 20 19 17 17 16 16 17 16 14 13 12 12 13 13 13 12 12 13 13 14 15 15 15 17 20 23 24 25 25 27 29 29 31 36 39 38 33 28 27
3 5 12 13 7 6 2 4 4 3 4 4 3 3 4 6 8 11 13 13 11 9 11 17 24 28 32 33 31 29 27 20 14 11 8 6 5 2 1 1 4 9 15 21 26 26 23 20 17 17 19 19 18 18 17 16 15 14 13 14 15 15 14 13 13 14 14 13 12 12 14 19 22 24 25 25 25 24 24 26 30 33 33 29 26 26
4 4 8 12 11 7 4 1 1 5 9 8 5 4 6 7 8 13 18 17 13 12 14 20 27 29 31 33 30 27 25 20 16 14 11 9 7 5 1 1 1 6 10 15 22 24 22 18 15 15 18 19 19 18 16 16 15 15 15 15 15 16 16 15 15 15 15 15 14 13 14 16 18 20 21 22 22 22 22 23 26 28 29 26 24 27
6 5 7 10 11 9 6 4 1 6 9 8 7 6 9 9 8 10 17 19 17 17 17 20 28 32 32 32 30 25 22 20 19 18 15 12 10 8 5 3 3 5 7 10 14 16 16 14 13 12 12 14 14 13 13 13 14 14 14 14 14 13 14 15 15 16 15 15 15 14 15 16 18 18 19 21 21 22 22 22 24 26 26 26 26 28
7 7 7 8 10 11 8 4 0 3 4 6 8 8 9 10 9 10 15 17 18 21 22 21 24 28 29 29 29 27 24 23 22 21 19 17 14 11 9 7 5 5 7 10 11 12 13 13 13 12 11 11 11 11 11 11 12 13 13 12 12 11 10 11 11 11 11 10 10 11 11 13 15 17 18 20 21 22 23 24 25 26 26 27 27 26
4 8 8 8 10 12 9 4 1 2 5 7 8 9 9 8 11 14 16 18 19 23 26 24 20 22 26 26 27 27 27 28 27 24 22 20 18 15 12 8 7 6 8 11 13 12 12 12 13 12 12 11 11 11 11 11 10 11 11 11 11 10 9 9 8 8 8 7 7 7 7 8 9 11 13 15 17 19 21 23 25 26 27 26 25 23
1 7 9 8 8 10 9 8 6 6 8 9 9 10 9 9 14 17 14 16 21 25 27 26 22 23 28 28 28 29 30 29 28 27 25 22 20 17 13 9 8 8 10 12 14 14 13 13 13 13 13 12 12 11 11 11 10 10 10 10 11 10 10 10 10 9 9 8 8 8 7 7 7 8 9 10 11 13 15 17 19 22 23 24 24 24
5 5 9 8 7 7 6 7 7 6 9 12 12 12 13 13 17 17 13 15 23 26 28 29 27 27 33 36 35 34 33 30 29 28 27 24 20 16 11 8 8 8 9 12 14 16 16 15 14 14 14 14 14 14 13 13 13 12 12 12 12 12 12 12 12 12 12 12 11 11 11 10 10 10 11 11 11 12 13 14 15 16 18 20 21 23
6 5 6 8 6 4 3 4 4 4 8 11 12 14 16 14 11 12 12 14 20 25 29 32 31 31 36 40 39 37 37 34 28 26 26 23 17 12 10 9 8 7 8 11 13 14 15 15 16 17 17 17 17 17 17 17 17 16 16 16 16 16 16 16 16 16 16 16 16 15 15 15 14 14 14 14 14 14 15 15 15 16 16 17 18 20
4 5 3 4 5 5 3 3 2 2 4 9 11 12 14 12 8 8 10 13 17 22 27 30 31 31 33 36 35 35 37 35 28 24 22 19 14 13 14 15 14 12 12 13 14 14 14 14 16 17 19 21 21 21 21 21 21 21 20 20 20 20 21 21 21 21 21 21 20 20 20 19 19 19 19 18 18 18 19 19 19 19 19 18 18 19
0 2 3 1 2 3 3 3 3 2 3 7 9 10 10 10 7 6 8 11 15 19 22 25 26 25 26 30 31 30 31 30 25 22 19 17 17 16 17 19 19 17 16 17 17 18 17 18 18 19 20 21 23 24 25 24 24 24 24 24 24 24 25 25 25 26 26 25 25 25 24 24 24 24 24 23 23 23 23 23 24 24 24 23 22 22
3 2 1 1 2 2 3 3 4 5 5 5 8 9 8 8 6 5 7 11 15 17 20 21 22 22 24 27 28 27 25 24 22 22 21 20 20 20 20 20 20 18 17 18 20 22 23 24 24 24 23 23 23 25 26 27 26 26 26 27 27 27 27 28 28 29 29 29 29 29 29 29 29 29 29 29 28 28 28 28 28 28 28 28 27 27
4 4 3 3 4 4 4 3 3 4 6 5 7 9 9 8 6 4 6 10 14 17 20 21 21 23 25 27 28 26 24 21 20 22 23 23 22 22 22 20 19 18 19 21 22 24 25 25 25 25 26 26 26 27 28 28 28 29 29 29 30 30 31 30 30 31 31 31 32 32 32 32 32 33 33 33 33 33 32 32 33 33 32 32 32 31
5 6 5 5 6 6 5 5 4 4 5 6 7 8 10 9 7 5 5 6 9 13 17 20 22 23 25 26 28 28 27 26 24 24 24 24 23 22 21 19 18 18 19 20 22 23 23 23 23 23 24 25 26 27 28 29 30 30 30 31 31 31 32 32 33 33 33 33 34 34 35 35 35 35 35 36 36 37 37 37 37 37 37 36 36 35
8 8 7 8 9 9 8 8 7 7 7 8 9 9 10 9 8 8 8 8 8 11 14 18 20 22 22 23 25 26 26 27 26 24 23 23 22 20 19 18 18 18 19 21 23 24 25 25 25 25 25 26 26 27 28 29 29 30 30 30 30 30 30 31 32 33 33 33 34 34 36 36 37 37 37 37 37 37 38 39 40 40 40 40 39 38
10 9 9 10 11 11 10 10 10 10 10 11 12 13 13 13 12 11 11 12 13 14 15 16 18 18 18 19 20 21 21 21 21 20 20 20 20 19 19 18 19 20 21 23 25 27 28 29 29 28 28 28 27 27 28 28 29 29 29 29 29 29 29 30 30 31 32 33 33 34 34 35 36 37 37 37 37 37 37 38 39 39 40 40 40 39
12 11 9 9 10 11 12 12 12 13 14 15 16 16 17 18 18 17 16 16 17 17 18 18 19 19 19 19 18 19 21 22 22 22 22 22 22 22 21 21 22 24 25 27 28 29 30 31 30 29 28 28 28 28 28 28 28 28 28 28 28 28 28 28 29 29 30 31 32 32 33 34 34 35 36 36 36 36 36 36 36 37 37 38 39 39
13 13 12 11 11 11 12 12 13 15 17 17 18 19 19 20 22 23 22 21 20 20 21 21 21 22 22 22 22 23 24 25 25 26 26 26 26 26 26 27 28 29 30 31 31 30 30 30 30 30 28 27 27 26 27 27 27 27 27 27 26 27 26 27 27 28 28 29 29 30 31 32 32 33 33 34 34 34 34 34 34 34 35 36 37 38
Wind_Direction
197 204 203 200 194 189 192 191 180 170 166 195 220 213 199 194 194 193 194 195 193 191 188 186 186 184 184 185 185 187 187 186 189 192 189 185 185 186 186 189 188 174 163 161 156 154 158 163 171 177 174 170 168 166 167 168 163 165 167 162 162 165 164 161 158 153 149 145 145 144 142 140 141 145 151 153 155 158 158 155 156 158 161 165 164 157
202 208 207 203 196 195 199 191 181 185 183 178 220 215 203 200 198 192 194 195 194 192 187 185 185 183 183 184 186 191 190 186 189 190 186 186 185 185 188 189 183 174 173 174 167 164 166 169 174 179 181 178 172 169 168 166 164 169 175 168 164 167 166 162 159 159 161 158 150 148 147 144 143 147 153 159 162 163 163 164 163 164 167 169 168 162
207 212 210 206 201 201 201 194 189 197 200 163 213 210 201 202 196 186 192 195 192 192 187 186 184 181 183 183 185 191 190 187 191 193 189 189 187 185 189 188 181 180 188 189 181 178 182 183 182 184 184 181 176 172 169 167 166 172 180 171 163 169 170 166 166 168 171 169 161 156 155 153 149 150 156 161 163 163 164 167 168 168 168 169 169 167
209 214 213 211 208 205 200 198 197 198 199 197 210 207 203 203 194 184 188 188 187 190 189 188 186 186 186 184 185 190 190 189 193 196 194 195 196 190 191 194 189 189 195 197 194 191 195 198 195 190 186 184 179 173 171 170 169 175 180 173 166 170 172 172 174 177 178 177 170 165 166 164 156 153 158 160 160 161 163 165 167 168 168 167 168 168
210 208 204 207 209 209 206 202 202 202 200 203 210 211 212 210 204 202 196 181 178 185 191 189 185 191 192 188 186 187 190 192 194 197 198 199 203 201 201 207 206 202 200 201 202 202 203 204 203 197 191 188 182 175 172 171 172 178 179 175 173 171 172 178 181 184 187 183 176 175 177 168 154 152 158 161 161 163 165 164 165 166 167 167 167 168
211 195 185 191 197 206 209 206 203 201 202 212 218 216 226 227 216 213 200 177 172 179 191 188 181 192 199 196 191 189 191 194 195 199 200 199 201 202 204 209 211 211 208 208 209 210 210 211 215 212 196 188 184 178 174 174 177 181 181 178 176 172 172 180 185 187 187 183 175 175 180 167 149 157 164 167 169 168 166 164 163 164 165 166 167 168
202 181 182 185 187 198 207 207 202 201 208 221 222 212 224 230 222 216 198 177 173 175 180 186 186 190 202 202 198 195 194 193 194 200 202 201 201 201 204 209 211 212 212 213 215 216 218 221 225 216 192 183 183 180 177 178 181 184 183 179 178 175 174 179 185 186 185 181 174 170 174 173 168 176 179 179 180 172 164 162 162 162 163 166 166 167
192 177 184 187 189 196 204 204 200 202 211 217 214 212 220 222 222 219 193 177 177 173 165 183 194 187 204 207 201 197 195 192 194 198 202 203 201 200 203 206 209 214 214 214 217 218 222 228 225 208 183 172 178 183 182 182 183 187 184 180 181 181 179 179 178 179 181 179 175 173 175 176 179 187 186 182 184 179 168 164 163 162 162 164 166 167
195 192 196 195 202 206 203 200 198 202 209 206 206 237 241 227 225 213 190 180 174 163 164 186 195 186 211 210 202 198 197 194 194 196 200 201 200 199 201 202 204 210 215 218 221 222 225 229 218 194 174 167 176 184 189 188 186 189 187 181 183 185 183 181 175 174 179 181 176 174 176 178 181 189 187 178 181 183 176 170 165 164 164 165 167 168
207 211 214 217 225 217 201 198 197 200 209 213 228 252 240 220 210 193 185 184 170 161 180 189 190 185 218 206 199 199 200 198 195 196 198 198 198 198 199 202 202 207 216 221 225 227 232 233 217 196 187 183 180 184 192 193 190 191 191 185 184 186 185 183 178 175 180 184 181 175 177 178 177 185 186 179 179 182 180 175 169 166 167 168 168 168
211 217 228 230 226 212 202 201 194 197 212 224 239 237 211 191 183 175 177 179 163 179 203 191 188 190 224 205 200 200 202 200 195 195 197 196 197 197 198 202 202 206 214 220 224 226 232 236 227 212 202 198 193 189 193 196 194 194 195 190 186 187 187 185 181 179 182 187 185 178 177 177 171 176 184 181 180 181 182 180 173 168 168 170 170 167
216 218 224 222 213 208 212 202 191 198 214 225 236 213 182 164 168 173 191 192 163 228 208 195 194 198 228 217 207 205 205 202 197 198 199 197 197 197 199 201 201 205 210 214 220 223 226 230 226 217 209 209 209 195 194 199 198 199 200 196 193 190 188 187 184 183 185 186 187 183 179 177 173 172 179 183 182 183 188 188 184 176 169 170 170 166
230 222 214 210 211 213 216 206 200 206 216 226 218 185 156 120 148 173 294 272 242 223 186 194 194 201 241 239 223 215 210 204 202 203 204 203 200 198 201 202 200 205 209 208 213 218 220 222 219 218 216 214 210 196 195 204 204 204 205 204 201 197 193 191 188 187 189 188 188 188 186 182 177 173 177 185 186 189 194 195 194 190 180 175 172 168
240 228 218 216 217 215 214 215 210 206 211 218 201 176 156 116 109 158 252 264 262 249 184 193 191 202 251 245 237 223 214 210 207 206 206 207 203 199 203 204 201 206 211 209 209 212 214 215 215 219 220 214 206 195 196 207 209 208 209 209 207 204 201 198 193 190 191 192 191 192 193 190 183 177 178 185 191 192 191 194 199 200 197 189 181 177
245 234 220 216 219 213 211 217 219 213 208 209 204 190 180 171 159 167 198 202 202 119 124 174 185 213 246 239 233 209 206 210 207 205 207 210 209 203 203 205 204 208 211 210 209 210 209 208 212 218 218 213 205 197 198 207 213 213 210 209 209 209 207 204 201 195 191 195 197 197 196 192 189 185 184 187 194 196 190 194 203 203 204 201 193 188
249 246 215 208 209 207 208 214 218 210 199 196 199 197 191 190 184 179 192 194 169 125 124 166 186 227 224 228 209 186 189 198 199 200 202 209 212 210 207 205 204 208 210 212 213 213 212 209 211 216 217 214 209 204 203 207 214 217 214 208 206 209 210 208 209 203 196 196 200 202 200 195 192 192 193 192 194 199 197 196 202 204 204 203 200 198
252 236 207 204 205 202 208 207 196 190 186 186 192 194 196 202 199 184 184 184 161 124 131 179 201 219 204 207 184 177 184 189 194 199 201 206 211 213 213 210 207 208 210 214 216 217 218 215 214 215 215 214 211 209 208 209 214 218 217 210 202 204 207 209 211 209 204 202 201 203 203 199 195 193 196 197 196 201 202 200 202 203 203 200 200 202
254 227 203 198 198 199 200 193 185 190 186 179 184 191 194 197 199 189 163 145 133 82 167 195 215 194 176 178 179 180 184 184 190 201 205 209 212 213 214 213 211 211 213 217 218 218 220 218 216 215 215 214 212 212 211 210 212 213 216 213 205 202 204 207 212 212 209 207 205 206 206 202 199 197 197 199 199 201 203 202 201 203 203 200 199 203
255 235 202 191 188 188 192 190 182 179 179 178 183 187 185 184 188 180 165 157 141 75 159 218 244 201 184 182 186 188 188 187 194 203 206 210 211 212 213 211 210 211 215 218 217 218 220 217 216 216 217 218 216 214 210 209 212 208 208 209 204 201 202 204 209 213 213 210 207 208 207 204 202 202 201 201 202 202 202 203 201 201 203 202 201 204
249 231 199 193 185 175 184 195 186 170 165 169 175 183 189 188 174 169 171 175 166 145 141 204 292 222 200 196 194 193 191 194 203 206 206 208 207 209 211 209 207 208 212 214 214 217 219 217 218 219 219 220 219 216 210 209 212 206 205 207 204 200 201 203 204 208 213 214 211 209 208 206 203 204 205 204 205 203 201 202 201 200 203 204 204 204
260 218 189 190 187 179 186 196 193 185 181 173 166 173 189 190 175 166 163 164 168 157 127 142 292 225 207 203 198 196 195 199 207 206 204 207 209 212 213 209 206 205 205 208 211 214 217 216 219 222 223 222 221 220 215 213 215 211 206 206 205 205 205 205 205 206 210 213 213 210 208 207 205 205 207 208 209 207 204 204 202 201 202 204 205 205
264 190 172 170 175 180 184 187 189 191 190 187 184 174 177 191 182 166 142 148 169 169 163 167 182 205 202 199 193 198 200 202 208 210 208 205 203 209 214 210 206 204 202 206 210 214 216 216 216 221 225 225 223 222 221 221 223 222 214 205 203 207 211 212 211 211 212 214 215 214 212 211 209 207 208 209 211 211 210 209 207 206 205 203 204 205
265 181 177 163 166 167 167 176 183 187 186 185 184 172 171 199 193 181 176 166 164 167 171 168 155 189 197 193 187 196 205 208 209 211 212 204 190 197 208 207 207 205 201 203 208 211 215 217 218 221 224 225 225 225 226 226 226 229 224 213 206 204 207 213 215 216 217 217 217 217 216 215 213 212 212 211 211 212 213 214 214 213 211 208 206 205
350 229 205 150 149 146 143 166 182 193 199 189 177 178 187 206 204 203 203 181 167 167 165 153 118 191 191 190 190 195 203 208 208 206 208 205 191 195 204 204 209 211 204 201 204 208 213 217 220 223 225 226 226 227 229 230 230 232 228 222 216 209 206 209 212 215 218 219 220 221 221 221 219 217 216 214 213 212 212 215 218 219 218 215 213 209
49 4 242 146 131 126 128 155 172 182 192 188 183 196 207 197 197 203 204 185 173 178 177 165 155 184 185 188 192 196 203 207 205 204 206 206 199 197 201 205 212 215 207 202 205 210 215 218 221 224 225 226 226 227 230 233 235 235 230 226 223 216 210 212 214 216 218 221 223 224 227 229 228 226 222 218 216 214 213 215 217 220 221 221 220 216
65 52 65 99 115 127 123 130 149 157 162 164 176 191 193 179 190 200 192 181 178 185 187 182 172 173 178 185 191 196 204 206 203 203 207 209 206 201 203 211 218 221 213 205 208 215 218 219 221 223 223 221 221 223 227 233 237 237 233 231 229 221 214 215 221 222 221 224 226 226 229 231 233 233 230 225 221 216 215 216 217 219 221 222 223 223
91 84 79 81 96 99 79 75 137 161 152 153 164 175 178 175 191 208 194 189 191 184 187 199 193 177 176 184 191 195 200 205 205 205 207 209 208 206 209 221 231 232 222 210 210 216 220 220 217 217 217 214 215 218 222 230 236 236 234 236 236 230 219 219 228 231 229 228 228 229 231 231 233 236 235 233 230 224 219 217 218 220 221 222 224 225
121 99 84 82 92 95 80 76 113 149 147 148 154 156 165 176 191 209 207 204 198 184 186 203 200 189 185 186 190 194 197 201 202 201 203 205 206 209 215 226 237 236 224 215 214 215 218 219 216 213 209 203 206 216 222 229 235 236 235 236 237 234 226 225 232 236 236 234 232 233 233 231 233 236 236 235 234 232 228 223 219 220 222 224 225 226
149 111 92 94 89 94 97 90 102 131 145 153 151 146 156 170 181 197 207 203 194 197 209 204 196 198 197 188 188 194 196 197 197 194 196 200 205 215 222 228 238 238 226 218 216 216 217 216 217 219 212 200 202 213 222 230 234 234 234 233 232 231 228 227 230 232 234 235 235 234 230 227 232 238 239 237 235 235 235 232 225 221 221 225 227 228
167 141 105 108 104 100 109 106 104 115 136 153 152 148 157 169 170 174 185 186 184 196 222 202 189 193 196 188 186 189 190 192 190 186 190 199 208 222 236 242 241 237 230 221 215 216 217 214 213 219 219 207 203 209 218 226 228 228 229 229 230 231 229 228 227 228 230 232 233 232 227 225 231 238 240 240 237 236 237 236 233 226 222 224 227 228
184 176 138 110 114 119 122 125 113 104 115 133 141 150 161 167 164 160 164 172 175 177 189 187 181 181 182 182 183 184 186 190 189 187 193 206 221 237 248 246 227 217 223 224 217 215 219 220 215 213 213 209 206 211 218 222 224 222 223 226 230 231 230 229 229 229 228 227 228 229 226 224 229 234 236 236 236 236 236 236 235 230 225 222 223 226
187 195 195 154 93 123 128 134 135 112 105 116 122 133 148 154 155 154 156 167 177 175 173 178 181 178 173 175 182 188 192 195 196 196 199 205 218 222 226 227 212 205 212 218 215 214 218 222 220 215 213 213 212 213 212 213 217 218 216 219 221 218 219 226 230 229 227 225 225 226 227 226 228 232 234 234 234 235 237 238 236 234 231 225 220 222
186 198 209 236 317 122 126 134 158 151 109 101 99 103 125 147 153 157 164 172 184 188 180 181 185 181 174 176 185 191 195 197 194 190 187 181 185 186 184 193 196 198 205 208 208 209 213 217 219 217 216 214 211 208 205 203 209 215 214 214 212 205 206 217 225 226 225 225 224 225 227 228 230 234 237 239 240 239 239 238 236 235 235 229 220 217
215 187 201 223 264 303 141 148 160 164 130 91 88 92 110 138 148 160 172 174 176 190 192 187 186 182 178 180 187 191 190 190 183 169 150 140 160 168 168 178 189 195 200 203 204 207 211 217 221 219 217 215 209 206 207 207 210 218 222 222 223 223 219 218 223 228 230 228 224 222 227 229 230 232 236 240 243 243 240 237 236 235 234 230 223 219
233 180 184 202 241 294 281 173 165 167 154 140 118 114 115 117 134 153 162 166 169 177 183 185 186 186 183 183 188 190 186 180 173 171 176 168 153 139 115 141 189 195 198 203 206 210 216 223 228 225 220 220 216 212 213 214 217 227 233 233 233 234 234 230 230 232 234 233 225 219 223 228 228 229 232 234 236 240 240 240 241 239 235 232 231 232
210 187 177 194 224 270 296 281 196 155 145 133 118 140 147 134 141 159 160 161 173 185 189 188 187 187 184 182 188 193 188 178 174 182 189 186 181 187 202 350 219 198 202 206 207 212 219 225 226 221 218 220 223 224 224 221 223 228 231 231 231 232 233 234 236 240 241 239 233 222 219 224 227 229 233 234 235 236 238 241 245 246 241 235 233 235
194 181 175 186 207 232 264 291 212 151 148 142 136 151 166 161 163 177 173 170 178 189 194 192 188 186 185 186 190 195 189 181 181 185 189 194 199 205 218 246 239 213 216 214 205 204 206 205 204 204 203 207 213 218 220 220 219 219 221 223 225 225 225 226 231 240 245 245 242 235 229 229 231 232 235 240 242 241 240 240 245 248 246 241 236 235
206 188 168 169 183 198 221 263 284 143 167 169 159 164 181 181 181 190 188 183 185 190 193 193 192 190 191 192 194 193 190 189 193 195 194 196 202 209 216 231 240 221 217 219 214 205 197 191 191 193 193 193 194 195 199 205 208 208 208 211 214 216 217 218 221 229 235 240 243 241 237 235 236 236 237 240 242 243 243 242 243 245 245 244 242 241
208 193 173 163 171 179 187 196 192 219 214 197 182 178 185 193 191 188 189 189 191 193 193 196 201 201 199 199 199 199 200 202 203 204 203 202 203 206 212 223 229 224 216 215 216 214 207 198 192 191 194 197 195 192 191 193 199 203 203 204 206 210 216 220 223 224 227 231 234 238 240 240 241 242 241 241 241 242 244 245 247 250 252 253 253 253
136 190 179 165 159 166 176 180 184 207 208 195 182 174 173 184 187 185 188 192 194 195 195 199 210 211 202 200 201 205 210 213 212 210 209 207 206 207 209 210 213 222 222 215 213 214 212 209 204 200 200 201 202 203 201 199 202 207 212 216 217 219 223 227 230 232 233 234 235 237 241 243 246 250 251 253 252 251 252 254 256 259 262 263 263 262
76 154 177 173 155 149 167 180 184 201 200 185 172 163 161 167 181 192 205 205 201 199 196 200 211 212 204 201 202 206 211 215 216 216 214 212 213 214 214 209 207 219 227 223 219 218 217 217 216 214 212 211 211 213 214 215 217 220 226 231 233 234 234 235 236 238 239 240 238 238 239 241 244 248 253 258 262 263 263 262 263 265 265 265 265 264
62 86 162 183 182 169 176 193 194 207 205 193 180 173 172 173 186 205 217 216 210 204 198 201 209 212 208 203 201 202 204 204 208 214 215 213 217 225 232 230 225 231 239 233 227 226 228 229 228 228 228 227 225 226 227 229 232 234 237 240 242 243 243 243 244 245 245 245 244 242 241 241 242 244 248 254 260 263 265 265 265 266 267 268 268 266
56 60 101 171 199 212 231 239 208 197 209 203 198 194 195 201 215 220 220 224 218 207 201 205 210 213 215 213 210 209 210 211 215 220 217 213 219 233 238 237 244 255 255 246 239 239 244 248 247 245 242 239 238 238 238 239 241 242 243 244 245 245 245 246 247 248 248 249 249 249 248 247 247 246 246 248 252 256 260 264 266 268 269 269 269 269
74 57 52 81 200 214 237 248 237 243 233 213 212 216 216 220 228 228 224 226 216 202 199 204 209 213 220 225 226 226 226 226 226 225 222 219 225 234 235 238 249 262 263 257 254 255 259 264 266 263 258 252 247 244 244 245 246 247 248 248 247 245 245 245 246 247 248 249 250 251 252 253 253 253 250 249 250 251 254 257 260 263 266 267 268 268
217 182 52 331 269 248 264 274 259 251 253 242 235 238 237 234 232 209 197 210 212 204 201 206 210 211 217 225 230 232 233 231 225 222 224 229 234 238 240 242 249 258 262 261 262 264 268 270 270 266 262 257 252 249 248 249 251 254 256 256 254 252 250 248 247 248 249 249 250 252 253 254 256 257 256 255 254 254 255 256 258 259 261 262 263 264
200 207 237 272 272 264 264 273 261 243 243 246 248 254 258 256 248 218 192 205 212 211 211 214 215 214 216 222 229 231 231 230 226 224 227 232 237 239 239 241 246 253 260 265 266 267 269 271 269 265 260 257 256 256 256 256 258 260 261 261 260 259 258 256 255 253 252 252 252 252 253 254 255 257 258 259 259 259 259 260 260 261 262 262 262 262
203 220 233 246 255 256 247 238 229 226 224 215 219 245 262 266 262 254 237 223 219 215 214 216 219 221 222 225 227 225 221 217 218 222 228 232 234 233 234 239 247 255 263 268 269 269 269 269 269 267 264 263 263 263 264 263 263 262 263 262 261 261 261 260 260 259 259 257 256 255 254 254 254 255 257 258 260 260 261 261 262 263 263 264 263 263
229 235 238 242 248 252 251 245 242 239 231 217 208 219 238 250 256 257 253 247 237 222 213 212 217 224 230 233 232 230 224 219 218 220 225 229 231 231 235 243 252 260 267 271 272 271 270 269 269 268 268 268 267 266 266 265 264 263 262 262 261 261 260 260 260 260 260 259 258 257 256 256 255 255 255 256 257 258 260 261 262 263 264 265 265 266
237 242 243 243 249 256 256 251 246 240 233 226 218 214 217 224 233 243 246 243 238 230 221 218 220 224 232 238 237 233 231 231 229 227 229 230 232 235 240 247 255 262 267 269 269 268 267 267 266 266 266 266 265 264 264 263 263 263 263 263 262 262 261 260 259 258 258 257 257 257 257 256 256 255 255 255 255 256 257 259 261 263 264 265 266 267
240 243 244 244 253 260 258 252 246 238 230 226 224 220 217 216 219 225 231 234 236 236 233 230 230 230 231 235 235 229 226 228 230 231 231 231 232 236 241 248 255 262 264 264 263 262 262 263 264 265 266 266 265 265 264 263 262 262 262 263 263 262 262 261 259 258 257 257 256 256 257 257 257 257 256 256 256 256 256 257 258 260 263 265 266 266
245 245 246 247 247 249 252 254 251 243 236 234 231 228 224 221 220 221 224 226 230 235 239 240 240 239 237 235 234 233 232 231 232 233 234 235 239 244 249 254 259 262 263 262 261 260 260 261 262 263 264 265 266 266 264 263 263 262 261 262 262 262 262 261 259 259 258 258 258 258 258 259 259 259 259 259 258 258 258 257 257 258 259 261 263 265
Height
3139 3140 3141 3142 3145 3147 3149 3151 3154 3155 3156 3157 3158 3159 3160 3161 3162 3163 3164 3164 3165 3167 3169 3171 3173 3175 3176 3177 3180 3181 3183 3184 3186 3187 3188 3190 3191 3192 3194 3196 3197 3199 3201 3203 3205 3207 3209 3211 3213 3214 3215 3216 3218 3219 3220 3221 3222 3223 3224 3225 3226 3227 3227 3229 3230 3230 3231 3232 3233 3234 3235 3235 3235 3236 3236 3236 3236 3237 3237 3238 3239 3240 3241 3242 3243 3244
3138 3138 3139 3142 3146 3148 3149 3151 3154 3154 3155 3155 3156 3157 3159 3161 3161 3162 3163 3164 3165 3167 3169 3171 3173 3174 3176 3178 3179 3181 3182 3183 3185 3186 3188 3189 3191 3192 3194 3195 3197 3199 3201 3203 3204 3206 3208 3211 3213 3214 3215 3217 3218 3219 3221 3222 3222 3223 3224 3225 3226 3227 3228 3229 3230 3231 3232 3233 3233 3234 3235 3236 3237 3237 3237 3237 3238 3238 3239 3240 3241 3242 3242 3243 3244 3245
3136 3135 3138 3143 3146 3148 3149 3151 3152 3153 3154 3154 3154 3156 3158 3159 3160 3162 3163 3164 3165 3166 3168 3170 3172 3174 3176 3178 3179 3181 3182 3183 3184 3186 3188 3189 3190 3192 3193 3195 3196 3198 3200 3202 3204 3206 3208 3210 3212 3214 3216 3217 3219 3220 3221 3222 3222 3223 3224 3225 3226 3227 3228 3229 3230 3231 3232 3233 3234 3234 3235 3236 3237 3238 3238 3238 3239 3240 3240 3241 3242 3243 3243 3244 3244 3245
3134 3135 3139 3143 3145 3147 3149 3150 3151 3152 3153 3154 3154 3155 3156 3157 3159 3160 3162 3164 3164 3165 3167 3169 3171 3173 3175 3178 3179 3181 3182 3182 3183 3185 3188 3189 3190 3191 3193 3195 3196 3197 3200 3202 3203 3205 3208 3210 3212 3213 3215 3217 3219 3220 3221 3222 3223 3224 3225 3225 3227 3228 3228 3229 3230 3231 3232 3233 3234 3234 3235 3236 3237 3238 3239 3239 3240 3240 3241 3242 3243 3244 3244 3244 3245 3246
3133 3136 3140 3142 3143 3146 3148 3149 3150 3151 3153 3153 3154 3155 3156 3157 3158 3158 3160 3162 3164 3165 3166 3168 3171 3172 3174 3176 3178 3180 3181 3181 3182 3184 3187 3189 3190 3192 3193 3195 3196 3198 3199 3201 3203 3205 3207 3209 3211 3213 3215 3217 3218 3220 3221 3222 3224 3225 3225 3226 3227 3228 3229 3230 3231 3232 3232 3233 3234 3235 3236 3237 3238 3238 3239 3240 3241 3241 3242 3243 3244 3244 3245 3245 3246 3246
3133 3136 3138 3139 3141 3144 3145 3147 3149 3151 3152 3153 3153 3154 3155 3157 3157 3158 3159 3160 3163 3164 3164 3166 3169 3171 3172 3173 3175 3177 3180 3181 3181 3183 3185 3187 3190 3191 3193 3195 3197 3198 3200 3201 3203 3205 3207 3209 3211 3213 3215 3216 3218 3220 3221 3222 3224 3225 3226 3226 3227 3228 3229 3230 3231 3232 3233 3234 3235 3236 3237 3238 3239 3239 3240 3241 3242 3242 3243 3243 3244 3245 3245 3246 3247 3247
3133 3135 3137 3138 3140 3141 3143 3146 3148 3150 3151 3152 3151 3153 3155 3157 3157 3157 3158 3159 3161 3162 3163 3164 3166 3168 3170 3171 3173 3176 3178 3179 3180 3182 3184 3186 3189 3191 3193 3195 3196 3198 3200 3202 3204 3206 3207 3209 3211 3212 3214 3216 3218 3219 3221 3222 3224 3225 3226 3226 3227 3228 3230 3231 3232 3233 3234 3235 3236 3237 3237 3238 3239 3240 3241 3241 3242 3242 3243 3243 3244 3244 3245 3246 3247 3248
3132 3134 3135 3137 3138 3139 3140 3143 3147 3149 3150 3150 3151 3153 3154 3155 3156 3157 3158 3159 3160 3160 3162 3164 3166 3167 3168 3169 3171 3174 3176 3177 3178 3180 3183 3185 3188 3190 3193 3195 3197 3198 3200 3202 3204 3205 3207 3209 3211 3213 3214 3216 3218 3219 3220 3222 3223 3225 3226 3226 3227 3228 3229 3231 3232 3233 3235 3236 3236 3237 3238 3239 3240 3241 3241 3242 3242 3243 3243 3243 3244 3245 3245 3246 3247 3248
3132 3134 3135 3136 3137 3137 3138 3141 3146 3149 3149 3149 3151 3153 3153 3154 3156 3157 3158 3159 3159 3160 3161 3164 3166 3166 3166 3167 3170 3172 3174 3175 3176 3178 3181 3184 3187 3190 3192 3195 3197 3199 3200 3202 3204 3205 3207 3209 3211 3213 3214 3216 3217 3219 3220 3222 3223 3224 3225 3226 3227 3228 3229 3230 3232 3233 3235 3236 3237 3238 3239 3240 3240 3241 3242 3242 3243 3243 3244 3244 3244 3245 3246 3247 3247 3248
3131 3132 3134 3135 3136 3136 3138 3141 3145 3147 3148 3149 3151 3152 3152 3154 3156 3158 3159 3160 3159 3159 3160 3161 3163 3165 3165 3164 3167 3170 3170 3171 3174 3177 3180 3183 3186 3189 3192 3194 3197 3199 3200 3202 3204 3205 3207 3209 3211 3213 3214 3216 3217 3219 3220 3221 3223 3224 3225 3226 3227 3228 3229 3230 3232 3233 3235 3236 3237 3238 3239 3240 3241 3242 3243 3243 3244 3244 3245 3245 3245 3246 3246 3247 3248 3248
3130 3131 3132 3133 3133 3135 3138 3141 3144 3146 3148 3149 3149 3150 3150 3153 3155 3157 3159 3159 3159 3159 3158 3159 3161 3163 3163 3162 3162 3163 3165 3168 3173 3176 3179 3182 3185 3189 3192 3194 3196 3198 3199 3201 3203 3205 3207 3209 3211 3213 3214 3215 3217 3218 3219 3221 3222 3223 3225 3226 3227 3228 3229 3230 3231 3233 3234 3236 3237 3238 3239 3240 3241 3242 3243 3244 3245 3245 3245 3246 3246 3246 3247 3247 3248 3248
3128 3129 3130 3131 3133 3135 3137 3140 3143 3146 3147 3147 3148 3147 3149 3154 3156 3158 3160 3160 3159 3158 3157 3158 3160 3162 3162 3161 3160 3161 3163 3168 3172 3174 3176 3180 3184 3188 3190 3190 3192 3194 3196 3199 3202 3204 3206 3208 3210 3212 3213 3215 3216 3218 3219 3220 3222 3223 3225 3226 3227 3227 3229 3230 3231 3232 3234 3235 3237 3238 3239 3240 3241 3242 3244 3245 3245 3246 3246 3246 3247 3247 3247 3248 3248 3249
3127 3128 3129 3130 3132 3133 3135 3137 3140 3143 3144 3145 3146 3146 3149 3156 3160 3163 3165 3163 3159 3157 3157 3157 3160 3162 3161 3160 3161 3162 3163 3167 3170 3173 3176 3180 3184 3186 3186 3186 3189 3193 3195 3197 3200 3203 3205 3207 3209 3210 3212 3214 3216 3217 3219 3220 3221 3223 3224 3225 3226 3227 3228 3229 3231 3232 3233 3235 3236 3238 3239 3240 3241 3242 3243 3244 3245 3246 3246 3247 3247 3248 3248 3248 3249 3249
3126 3127 3128 3128 3130 3131 3133 3135 3136 3139 3140 3142 3143 3144 3146 3154 3161 3166 3167 3164 3159 3157 3156 3158 3160 3161 3159 3158 3159 3160 3162 3166 3170 3173 3177 3180 3181 3181 3183 3187 3190 3192 3194 3195 3198 3200 3203 3205 3207 3209 3211 3213 3215 3217 3218 3220 3221 3222 3223 3224 3225 3227 3228 3229 3230 3232 3233 3234 3235 3237 3238 3239 3240 3241 3242 3244 3245 3245 3246 3247 3247 3248 3248 3249 3249 3249
3126 3126 3126 3127 3128 3129 3131 3133 3134 3137 3139 3140 3142 3143 3144 3147 3154 3160 3160 3159 3158 3157 3157 3159 3161 3160 3158 3157 3157 3158 3162 3166 3169 3172 3175 3178 3178 3179 3183 3187 3190 3191 3193 3195 3197 3199 3201 3203 3205 3208 3211 3213 3215 3216 3218 3219 3220 3221 3222 3223 3225 3226 3227 3229 3230 3231 3233 3234 3235 3236 3237 3239 3240 3241 3242 3243 3244 3245 3246 3246 3247 3248 3249 3249 3249 3250
3124 3124 3124 3125 3127 3128 3130 3132 3133 3135 3137 3140 3141 3143 3143 3144 3147 3151 3152 3152 3153 3155 3157 3159 3158 3157 3157 3157 3157 3158 3162 3165 3168 3170 3173 3175 3177 3180 3183 3187 3189 3190 3192 3194 3196 3198 3200 3201 3204 3207 3210 3212 3214 3215 3217 3218 3219 3220 3221 3222 3224 3225 3227 3228 3230 3231 3232 3233 3234 3235 3237 3238 3239 3240 3241 3242 3243 3244 3245 3246 3247 3248 3249 3249 3250 3250
3123 3123 3123 3125 3126 3128 3130 3131 3133 3133 3135 3137 3139 3140 3142 3145 3146 3147 3150 3151 3151 3154 3158 3158 3157 3156 3157 3158 3158 3160 3162 3165 3167 3170 3172 3174 3176 3178 3182 3185 3188 3189 3191 3193 3195 3197 3199 3200 3203 3206 3208 3211 3212 3214 3215 3217 3218 3219 3221 3222 3224 3225 3226 3228 3229 3230 3231 3232 3233 3234 3236 3237 3238 3239 3241 3242 3243 3244 3245 3246 3247 3248 3248 3249 3250 3251
3123 3122 3123 3124 3125 3127 3129 3131 3132 3133 3134 3135 3137 3140 3142 3145 3146 3146 3148 3151 3152 3156 3158 3157 3156 3156 3157 3158 3159 3161 3162 3164 3167 3169 3171 3172 3173 3176 3180 3183 3186 3188 3190 3191 3193 3196 3197 3199 3202 3204 3207 3209 3211 3212 3214 3216 3218 3219 3220 3222 3223 3225 3226 3227 3229 3229 3230 3231 3232 3233 3235 3236 3237 3238 3239 3241 3242 3243 3244 3245 3246 3247 3248 3249 3250 3251
3123 3122 3122 3123 3124 3126 3127 3129 3130 3132 3133 3134 3136 3139 3141 3142 3143 3143 3146 3148 3152 3158 3159 3157 3156 3156 3156 3157 3159 3160 3163 3165 3167 3168 3169 3170 3172 3175 3178 3181 3184 3186 3188 3189 3192 3194 3194 3197 3200 3203 3205 3207 3209 3211 3213 3215 3217 3218 3220 3221 3223 3224 3225 3226 3227 3229 3229 3230 3231 3233 3234 3235 3236 3237 3238 3239 3240 3242 3243 3244 3245 3246 3248 3249 3250 3250
3122 3121 3121 3122 3124 3125 3126 3127 3128 3129 3132 3134 3136 3138 3139 3140 3140 3141 3143 3144 3148 3155 3158 3158 3157 3156 3156 3157 3158 3159 3163 3165 3165 3165 3166 3169 3172 3175 3176 3178 3180 3183 3184 3187 3190 3191 3192 3195 3198 3200 3203 3205 3207 3209 3211 3213 3215 3217 3219 3220 3221 3222 3223 3224 3226 3227 3228 3229 3230 3231 3232 3233 3234 3235 3236 3237 3239 3240 3242 3243 3244 3245 3247 3248 3249 3250
3122 3121 3121 3121 3123 3124 3125 3126 3127 3128 3130 3132 3134 3136 3137 3138 3139 3140 3142 3142 3143 3149 3154 3158 3158 3155 3154 3157 3158 3159 3162 3163 3163 3164 3165 3167 3171 3173 3175 3176 3178 3179 3181 3184 3186 3188 3190 3193 3196 3198 3200 3203 3205 3207 3209 3211 3214 3216 3218 3220 3221 3222 3222 3223 3225 3226 3227 3228 3229 3230 3231 3232 3233 3234 3235 3236 3237 3239 3240 3241 3243 3244 3245 3246 3248 3249
3121 3121 3120 3121 3122 3124 3124 3125 3127 3128 3130 3131 3132 3134 3135 3137 3137 3138 3141 3142 3142 3144 3148 3151 3153 3152 3153 3155 3157 3159 3161 3162 3162 3164 3165 3167 3169 3173 3175 3176 3177 3178 3179 3182 3184 3186 3188 3191 3193 3194 3197 3200 3202 3204 3207 3209 3211 3213 3215 3218 3219 3221 3222 3223 3224 3225 3226 3226 3227 3228 3230 3231 3232 3232 3233 3234 3235 3237 3239 3240 3241 3243 3244 3245 3246 3247
3121 3121 3120 3120 3121 3123 3124 3125 3126 3127 3129 3130 3131 3133 3134 3135 3136 3137 3138 3140 3141 3143 3145 3146 3149 3151 3152 3154 3157 3159 3160 3161 3162 3164 3167 3168 3169 3174 3177 3177 3177 3176 3177 3179 3181 3184 3186 3188 3190 3191 3193 3196 3199 3201 3204 3206 3209 3211 3213 3215 3217 3218 3220 3221 3222 3222 3223 3224 3226 3227 3229 3230 3230 3231 3232 3233 3234 3235 3237 3239 3240 3241 3242 3244 3245 3246
3121 3121 3121 3121 3121 3122 3123 3124 3125 3126 3128 3129 3130 3132 3133 3134 3135 3136 3137 3138 3140 3142 3144 3146 3149 3151 3151 3153 3156 3159 3160 3161 3163 3166 3169 3169 3170 3174 3178 3178 3177 3175 3175 3176 3179 3181 3183 3185 3186 3188 3191 3194 3197 3200 3202 3205 3207 3209 3210 3213 3215 3216 3217 3217 3218 3219 3220 3222 3224 3226 3228 3229 3230 3230 3231 3232 3233 3234 3235 3237 3238 3240 3241 3242 3243 3244
3121 3121 3121 3121 3122 3123 3124 3125 3125 3126 3127 3128 3129 3131 3132 3133 3134 3135 3137 3138 3139 3141 3142 3144 3147 3148 3150 3153 3156 3158 3159 3161 3163 3166 3168 3169 3170 3173 3176 3176 3176 3176 3176 3177 3179 3180 3181 3183 3184 3186 3190 3194 3197 3199 3201 3203 3204 3205 3208 3212 3213 3213 3214 3216 3216 3216 3218 3221 3223 3225 3227 3228 3229 3230 3230 3231 3231 3232 3234 3235 3236 3238 3239 3241 3242 3243
3122 3121 3121 3121 3122 3124 3125 3125 3125 3125 3126 3127 3128 3130 3131 3132 3133 3134 3135 3136 3138 3140 3141 3142 3143 3145 3148 3151 3154 3156 3158 3160 3162 3165 3166 3168 3169 3172 3173 3173 3175 3176 3177 3178 3179 3179 3180 3181 3183 3187 3190 3193 3196 3198 3200 3201 3200 3201 3206 3209 3210 3211 3213 3215 3215 3215 3217 3220 3222 3223 3224 3225 3227 3229 3229 3230 3230 3231 3232 3233 3234 3235 3237 3239 3240 3242
3123 3122 3122 3122 3122 3124 3125 3125 3125 3125 3126 3127 3128 3129 3130 3132 3133 3133 3134 3134 3135 3138 3140 3140 3141 3143 3147 3149 3151 3154 3156 3158 3161 3163 3165 3166 3168 3169 3171 3171 3172 3174 3175 3176 3177 3177 3178 3179 3182 3186 3190 3194 3197 3198 3199 3197 3196 3198 3201 3203 3205 3208 3211 3213 3212 3213 3216 3219 3221 3221 3222 3223 3225 3227 3228 3229 3230 3231 3231 3231 3232 3233 3235 3237 3238 3240
3123 3123 3124 3124 3124 3124 3125 3125 3125 3125 3126 3127 3128 3129 3130 3131 3132 3132 3133 3133 3135 3137 3139 3140 3140 3141 3144 3147 3150 3152 3155 3157 3160 3162 3164 3165 3167 3168 3169 3169 3170 3171 3172 3174 3175 3176 3177 3178 3181 3184 3189 3195 3197 3196 3196 3195 3194 3196 3198 3199 3202 3205 3208 3209 3209 3210 3214 3217 3218 3219 3220 3221 3223 3224 3226 3227 3229 3230 3230 3230 3231 3232 3233 3235 3236 3238
3123 3124 3125 3125 3125 3125 3125 3126 3126 3126 3126 3127 3128 3128 3130 3131 3131 3132 3133 3133 3134 3135 3137 3138 3140 3141 3143 3146 3149 3152 3154 3157 3159 3162 3164 3165 3166 3167 3167 3168 3169 3169 3170 3172 3173 3175 3176 3178 3179 3181 3186 3192 3194 3194 3194 3194 3194 3196 3197 3198 3201 3202 3204 3206 3207 3208 3211 3214 3215 3216 3216 3218 3220 3221 3223 3224 3226 3228 3229 3230 3230 3231 3232 3233 3235 3236
3123 3125 3126 3126 3126 3126 3126 3127 3127 3127 3126 3127 3127 3128 3129 3130 3130 3131 3132 3133 3134 3135 3136 3137 3139 3142 3144 3146 3149 3153 3156 3158 3160 3161 3163 3164 3165 3166 3166 3167 3168 3168 3169 3170 3172 3174 3175 3177 3178 3180 3183 3188 3191 3193 3193 3193 3194 3195 3196 3198 3199 3200 3202 3204 3205 3206 3208 3211 3213 3213 3212 3213 3216 3218 3220 3222 3224 3225 3227 3229 3230 3230 3230 3231 3233 3234
3124 3125 3127 3127 3127 3127 3128 3128 3127 3127 3127 3127 3127 3128 3128 3129 3130 3131 3131 3133 3134 3135 3136 3138 3140 3142 3146 3149 3151 3153 3155 3157 3159 3161 3163 3164 3165 3165 3165 3166 3167 3168 3169 3170 3172 3174 3175 3176 3178 3179 3182 3185 3188 3190 3192 3192 3192 3193 3195 3196 3197 3199 3201 3202 3204 3204 3205 3207 3209 3209 3208 3209 3211 3214 3216 3218 3220 3222 3224 3226 3227 3228 3229 3230 3231 3232
3124 3125 3126 3128 3128 3128 3129 3129 3128 3128 3128 3128 3128 3128 3129 3129 3130 3131 3132 3134 3135 3135 3136 3138 3140 3142 3145 3149 3151 3153 3154 3157 3158 3161 3163 3165 3165 3164 3165 3166 3167 3169 3170 3171 3172 3174 3175 3176 3177 3179 3181 3183 3186 3188 3189 3190 3191 3192 3194 3194 3196 3198 3200 3200 3201 3202 3203 3204 3204 3205 3205 3206 3208 3211 3213 3214 3216 3218 3220 3223 3225 3227 3228 3228 3228 3229
3124 3124 3126 3128 3129 3129 3129 3129 3129 3129 3130 3130 3129 3129 3130 3130 3131 3132 3133 3135 3136 3136 3136 3137 3139 3141 3144 3146 3148 3150 3153 3156 3158 3161 3163 3164 3164 3164 3165 3166 3167 3169 3170 3171 3173 3174 3175 3175 3177 3178 3180 3182 3184 3186 3187 3189 3190 3191 3192 3193 3195 3197 3199 3199 3200 3200 3200 3200 3201 3202 3203 3205 3207 3210 3212 3213 3214 3216 3219 3221 3223 3225 3227 3226 3224 3224
3124 3125 3126 3129 3130 3130 3130 3130 3130 3131 3132 3131 3131 3131 3131 3131 3132 3132 3134 3135 3136 3137 3138 3138 3140 3142 3144 3145 3147 3149 3152 3156 3159 3162 3163 3164 3164 3165 3165 3167 3168 3169 3170 3171 3172 3174 3175 3176 3177 3178 3180 3182 3183 3185 3186 3188 3189 3190 3191 3192 3193 3195 3197 3198 3198 3198 3197 3198 3199 3202 3203 3204 3206 3209 3210 3212 3213 3215 3218 3220 3221 3223 3224 3223 3220 3219
3124 3124 3126 3128 3129 3130 3130 3130 3131 3132 3132 3132 3132 3132 3132 3132 3132 3133 3134 3135 3136 3138 3139 3140 3141 3143 3144 3146 3148 3150 3153 3157 3160 3162 3163 3164 3165 3166 3166 3167 3168 3169 3170 3171 3172 3174 3175 3176 3178 3179 3180 3181 3183 3184 3186 3187 3188 3189 3190 3191 3192 3193 3195 3196 3197 3197 3197 3198 3200 3202 3202 3203 3205 3207 3208 3210 3211 3213 3216 3218 3218 3219 3220 3219 3218 3218
3124 3124 3125 3127 3129 3130 3130 3131 3131 3132 3132 3132 3132 3132 3132 3132 3132 3133 3133 3135 3136 3138 3139 3140 3141 3143 3145 3147 3149 3151 3154 3158 3160 3162 3163 3164 3165 3166 3167 3168 3169 3169 3170 3171 3173 3174 3176 3177 3178 3179 3180 3181 3182 3184 3186 3187 3189 3190 3190 3191 3192 3193 3194 3195 3196 3196 3196 3197 3199 3202 3202 3202 3203 3205 3206 3207 3208 3209 3212 3215 3216 3216 3216 3215 3215 3216
3123 3124 3124 3125 3128 3131 3132 3131 3131 3131 3132 3132 3132 3132 3132 3132 3133 3133 3134 3135 3136 3137 3140 3141 3142 3144 3146 3148 3149 3151 3154 3157 3159 3160 3161 3163 3164 3165 3167 3168 3169 3170 3171 3172 3173 3175 3176 3177 3178 3178 3179 3181 3182 3183 3185 3187 3188 3190 3190 3191 3192 3192 3194 3195 3195 3196 3196 3196 3198 3200 3202 3202 3203 3203 3204 3205 3205 3206 3207 3210 3212 3213 3214 3214 3214 3214
3123 3124 3124 3125 3127 3131 3132 3132 3130 3130 3131 3131 3132 3132 3132 3132 3133 3134 3135 3136 3136 3138 3140 3142 3143 3144 3146 3148 3149 3151 3153 3155 3156 3158 3159 3161 3163 3165 3166 3167 3169 3170 3172 3173 3174 3175 3176 3177 3178 3179 3179 3180 3182 3183 3184 3186 3187 3188 3189 3190 3191 3192 3192 3194 3195 3195 3196 3196 3197 3198 3199 3200 3201 3202 3203 3203 3204 3204 3205 3207 3209 3210 3212 3212 3212 3210
3123 3124 3125 3126 3127 3130 3131 3131 3131 3130 3129 3130 3131 3131 3132 3132 3133 3134 3135 3135 3137 3138 3140 3142 3144 3145 3146 3147 3149 3151 3152 3153 3154 3156 3157 3160 3162 3164 3166 3168 3169 3170 3172 3174 3175 3176 3177 3178 3179 3179 3180 3181 3182 3183 3184 3185 3186 3187 3188 3189 3190 3190 3191 3192 3193 3194 3195 3196 3196 3197 3197 3198 3199 3200 3201 3201 3202 3203 3204 3204 3205 3206 3206 3207 3206 3205
3123 3124 3125 3126 3127 3128 3129 3130 3131 3130 3130 3130 3130 3131 3131 3132 3133 3134 3134 3134 3136 3138 3140 3143 3144 3145 3146 3147 3148 3150 3151 3152 3153 3155 3157 3159 3161 3164 3166 3168 3169 3171 3172 3174 3175 3176 3177 3177 3178 3179 3180 3181 3182 3183 3183 3184 3185 3186 3187 3188 3189 3190 3190 3191 3191 3192 3193 3194 3195 3196 3197 3197 3198 3198 3199 3199 3200 3200 3201 3201 3202 3201 3201 3201 3201 3201
3124 3125 3126 3127 3127 3128 3128 3129 3130 3130 3130 3131 3131 3131 3131 3132 3133 3133 3133 3134 3135 3137 3139 3141 3143 3144 3146 3146 3147 3148 3150 3152 3155 3156 3157 3159 3161 3164 3166 3168 3170 3171 3172 3173 3174 3176 3176 3177 3178 3179 3180 3181 3181 3182 3183 3183 3184 3185 3186 3187 3188 3189 3190 3190 3191 3191 3192 3193 3194 3195 3195 3196 3196 3197 3197 3197 3198 3199 3199 3199 3199 3199 3199 3199 3199 3199
3125 3125 3126 3127 3128 3128 3128 3129 3129 3129 3130 3130 3131 3131 3131 3132 3133 3133 3134 3134 3135 3136 3138 3140 3142 3143 3145 3145 3146 3147 3148 3151 3155 3156 3157 3159 3162 3164 3166 3168 3169 3171 3172 3173 3174 3175 3176 3177 3177 3178 3179 3179 3180 3181 3182 3182 3183 3183 3184 3185 3186 3188 3188 3189 3190 3190 3190 3191 3192 3193 3194 3194 3195 3195 3196 3196 3196 3197 3197 3197 3197 3197 3197 3197 3197 3197
3126 3126 3126 3127 3127 3128 3128 3128 3129 3129 3129 3130 3130 3131 3131 3132 3133 3134 3134 3135 3135 3136 3139 3140 3142 3144 3145 3146 3148 3149 3149 3151 3154 3156 3157 3159 3162 3164 3166 3167 3168 3170 3172 3173 3173 3174 3175 3175 3176 3177 3178 3178 3179 3179 3180 3181 3181 3182 3183 3184 3185 3186 3186 3187 3188 3188 3189 3189 3190 3190 3191 3192 3193 3193 3194 3194 3195 3195 3195 3195 3195 3195 3195 3196 3196 3195
3126 3126 3126 3127 3127 3127 3128 3128 3129 3129 3129 3129 3130 3131 3131 3132 3133 3133 3134 3134 3135 3137 3138 3140 3142 3144 3145 3146 3148 3150 3151 3152 3154 3156 3157 3159 3162 3163 3165 3167 3168 3169 3170 3171 3172 3172 3173 3173 3174 3175 3176 3176 3177 3177 3178 3179 3179 3180 3180 3181 3182 3183 3184 3185 3185 3186 3187 3187 3187 3188 3188 3189 3189 3190 3190 3191 3192 3192 3192 3192 3192 3192 3192 3193 3193 3193
3126 3126 3126 3127 3127 3127 3127 3128 3128 3129 3129 3129 3130 3130 3131 3131 3132 3133 3134 3135 3135 3136 3137 3139 3141 3143 3144 3144 3146 3148 3150 3151 3152 3154 3157 3159 3161 3163 3164 3166 3167 3168 3169 3169 3170 3170 3171 3171 3172 3172 3173 3173 3174 3174 3175 3176 3176 3177 3178 3178 3179 3180 3181 3182 3182 3183 3184 3184 3185 3185 3186 3186 3186 3186 3187 3187 3188 3189 3189 3189 3189 3189 3189 3189 3190 3190
3125 3126 3126 3126 3126 3127 3127 3128 3128 3128 3129 3129 3129 3130 3130 3131 3132 3133 3134 3135 3136 3137 3137 3138 3140 3141 3142 3143 3145 3146 3148 3149 3150 3152 3155 3157 3159 3161 3163 3164 3166 3167 3167 3167 3168 3168 3169 3169 3170 3170 3170 3171 3171 3171 3172 3173 3173 3174 3175 3175 3176 3176 3177 3178 3179 3179 3180 3181 3181 3182 3182 3183 3183 3183 3183 3184 3184 3185 3185 3185 3185 3185 3185 3186 3186 3187
3125 3126 3126 3126 3126 3126 3127 3127 3127 3128 3128 3129 3129 3130 3130 3130 3131 3132 3133 3135 3136 3137 3138 3139 3139 3140 3141 3143 3144 3145 3145 3146 3146 3148 3151 3154 3156 3158 3160 3162 3164 3164 3165 3165 3166 3166 3166 3167 3167 3168 3168 3169 3169 3169 3169 3170 3170 3171 3172 3172 3173 3173 3174 3174 3175 3175 3176 3177 3178 3178 3179 3179 3179 3180 3180 3180 3180 3180 3180 3181 3181 3181 3181 3181 3182 3183
3125 3125 3126 3126 3125 3125 3126 3126 3127 3127 3128 3128 3129 3130 3130 3130 3131 3132 3133 3134 3135 3136 3137 3138 3139 3140 3141 3142 3143 3144 3145 3144 3144 3145 3148 3151 3154 3156 3158 3160 3161 3162 3163 3163 3163 3163 3163 3164 3164 3165 3166 3166 3166 3167 3167 3167 3167 3168 3168 3169 3169 3170 3171 3171 3171 3172 3172 3173 3173 3174 3174 3175 3175 3175 3176 3176 3176 3176 3176 3176 3176 3176 3176 3177 3177 3178
3125 3125 3125 3125 3125 3125 3125 3125 3126 3126 3127 3127 3128 3129 3130 3130 3131 3131 3132 3133 3134 3135 3136 3137 3138 3139 3140 3140 3141 3143 3145 3145 3144 3145 3147 3150 3152 3154 3156 3157 3158 3159 3160 3160 3160 3160 3160 3160 3160 3161 3162 3162 3163 3163 3164 3164 3164 3164 3165 3165 3165 3166 3167 3167 3167 3168 3168 3168 3168 3169 3169 3169 3170 3170 3171 3171 3172 3172 3172 3172 3172 3172 3172 3172 3173 3173
3124 3124 3124 3124 3124 3124 3124 3125 3125 3125 3125 3126 3126 3127 3128 3129 3130 3131 3131 3132 3133 3134 3135 3136 3137 3137 3138 3139 3140 3141 3143 3144 3145 3146 3147 3149 3150 3152 3153 3154 3155 3156 3156 3156 3156 3156 3156 3156 3156 3157 3158 3158 3159 3159 3160 3160 3160 3160 3161 3161 3161 3162 3162 3163 3163 3163 3163 3164 3164 3164 3164 3164 3165 3165 3166 3166 3167 3168 3168 3168 3169 3169 3169 3168 3168 3168
3122 3122 3122 3123 3123 3123 3123 3124 3124 3124 3124 3124 3125 3126 3126 3127 3128 3129 3130 3130 3131 3132 3133 3133 3134 3135 3136 3137 3138 3139 3140 3141 3142 3143 3145 3146 3148 3149 3150 3150 3151 3151 3152 3152 3152 3153 3153 3153 3152 3153 3154 3154 3155 3155 3155 3155 3156 3156 3157 3157 3157 3158 3158 3159 3159 3159 3159 3159 3160 3160 3160 3160 3160 3161 3161 3162 3162 3163 3163 3164 3165 3165 3165 3164 3164 3163